SCP
-0 -0 -0 -0 -0 -0 -0 -0 -0 -0 -0 -0 -1 -0 -0 -0 -0 0 0 0 0 0 -0 -0 0 -0 -0 -0 -0 0 -0 0 0
-0 -0 -0 -0 -0 -0 -0 -0 -0 -1 -1 -1 -1 -1 -0 0 0 0 0 0 0 0 -0 -0 0 -0 -0 -0 -0 -0 -0 0 0
0 -0 -0 -0 -0 -0 -0 -0 -0 -0 -1 -1 -1 -1 -1 -0 0 0 0 0 0 0 -0 -0 0 -0 -0 -0 -0 -0 -0 0 0
0 -0 -0 -0 -0 -0 -0 -0 -0 -0 -1 -1 -1 -1 -1 -0 -0 -0 0 0 0 0 -0 -0 0 0 -0 -0 -0 -0 -0 0 0
0 -0 -0 -0 -0 -0 -0 0 0 -0 -1 -1 -1 -1 -1 -0 -0 -0 -0 0 0 0 0 -0 0 0 0 0 0 -0 -0 -0 0
0 0 0 0 0 0 0 0 0 0 -0 -0 -0 -0 -1 -0 -0 -0 -0 0 0 0 0 0 0 0 0 0 -0 -0 -0 -0 0
0 0 0 0 0 0 0 0 0 0 -0 0 -0 -0 -1 -1 -1 -0 -0 -0 0 0 0 0 0 0 0 0 -0 -0 -0 -0 0
0 0 0 0 0 0 0 0 0 0 0 0 0 0 -0 -1 -1 -0 0 -0 0 0 0 0 0 0 0 0 0 0 0 0 0
0 0 0 0 0 0 0 0 0 0 0 0 1 1 -0 -1 -0 -0 -0 0 0 0 0 0 1 1 1 0 0 0 0 0 0
0 0 0 0 0 0 0 0 0 0 0 1 1 0 1 0 0 0 0 0 0 0 0 1 1 1 1 1 1 0 0 0 0
0 0 0 0 0 0 0 0 0 0 1 1 1 1 1 2 1 1 1 1 1 0 1 1 1 1 1 1 1 0 0 0 0
0 0 0 0 0 0 0 0 0 1 1 2 2 2 2 2 2 2 1 2 1 1 1 2 2 2 2 1 1 0 0 0 0
0 0 0 0 0 0 0 0 1 1 1 2 2 3 3 3 4 3 3 2 3 3 3 2 2 3 2 2 2 0 0 0 1
0 0 0 0 0 0 0 0 1 1 2 2 2 4 4 5 5 5 3 4 4 5 5 4 3 3 3 2 2 0 0 0 1
0 0 1 0 0 0 0 1 1 1 1 1 2 1 2 4 4 6 6 4 6 6 7 5 5 5 5 4 1 0 0 0 1
4 4 4 4 3 3 4 0 1 1 0 1 2 3 3 3 4 5 7 8 12 11 9 10 8 7 5 3 1 0 0 0 0
5 4 4 3 2 3 3 4 4 2 2 1 1 1 2 3 4 7 10 12 12 12 10 9 8 6 5 2 1 0 0 0 0
4 4 4 3 3 2 2 1 1 1 2 2 1 2 3 6 9 9 7 0 10 15 9 12 7 5 3 0 1 0 0 0 0
3 3 3 3 3 3 3 3 2 1 1 2 4 4 3 1 0 0 0 0 0 0 0 0 0 2 1 0 0 0 0 0 0
2 2 2 2 2 2 2 2 1 0 0 0 0 0 0 0 0 0 1 0 1 0 0 0 0 0 -0 0 0 0 0 0 0
Wind_Speed_500mb
93 91 96 104 116 115 115 118 119 118 115 110 105 97 90 82 77 68 60 58 57 64 58 52 46 45 41 33 30 30 30 31 29
74 87 96 105 119 117 117 120 123 125 124 118 112 104 96 89 81 74 68 58 59 67 61 54 50 45 41 36 35 34 32 31 30
69 85 90 105 107 119 116 116 121 122 122 123 115 107 101 93 84 79 73 59 66 69 72 64 55 51 45 40 39 40 37 33 33
75 84 97 107 113 102 115 119 116 121 120 120 120 112 104 97 90 86 82 68 71 73 68 64 61 56 51 42 43 42 42 36 35
75 91 92 88 106 101 102 107 114 119 117 118 119 115 107 98 91 90 89 77 75 79 76 73 66 60 58 52 51 51 49 45 41
63 74 79 80 96 87 94 98 109 118 116 115 115 115 115 107 98 95 94 85 79 81 83 81 77 73 68 63 58 56 55 53 49
51 65 84 88 95 90 101 101 106 112 117 116 112 112 114 115 105 93 95 89 84 83 85 88 84 83 80 75 67 64 63 60 56
41 51 76 89 101 105 99 94 94 102 107 111 112 110 112 115 111 94 95 95 93 88 88 89 90 89 85 83 81 77 70 65 62
41 58 80 94 95 90 86 84 93 97 104 110 110 109 108 112 109 104 100 102 100 96 95 90 92 93 97 94 89 85 80 74 68
59 59 72 92 96 87 96 97 93 94 98 108 109 106 107 107 108 104 106 107 105 103 101 96 95 95 96 97 92 88 82 76 69
57 50 62 75 95 86 81 78 86 91 100 108 111 106 107 109 109 104 105 110 110 109 107 104 99 98 94 89 84 80 76 70 65
44 41 42 65 70 73 78 87 91 90 96 104 106 107 107 108 110 109 109 109 110 114 113 109 104 101 91 78 77 71 64 59 61
42 30 26 59 58 48 49 67 66 76 85 94 101 106 108 110 108 113 113 111 110 111 113 112 103 98 84 74 70 57 51 46 56
36 37 35 42 43 38 37 55 61 62 73 86 85 93 101 110 111 113 113 113 114 111 109 102 96 88 72 70 61 46 45 46 48
32 30 24 18 22 33 37 45 64 75 76 78 84 71 98 111 111 113 110 110 110 110 103 95 88 81 75 63 52 46 42 44 33
30 26 22 18 15 16 22 35 47 66 78 77 83 101 101 101 103 109 110 108 103 110 110 104 91 81 75 67 63 54 47 31 31
28 21 14 8 8 10 14 16 30 52 62 72 84 89 96 99 103 108 106 106 100 97 84 79 79 83 77 67 65 57 52 56 48
29 21 14 5 1 9 17 24 28 30 39 54 62 72 84 93 95 87 82 81 81 86 87 83 80 72 56 43 58 36 37 42 52
33 29 21 14 10 6 12 20 29 30 26 23 28 35 48 53 60 64 69 56 39 51 70 65 67 54 58 47 28 29 47 42 40
37 31 26 21 16 11 6 13 22 26 28 22 13 20 25 35 42 64 66 66 67 57 47 36 44 45 35 52 59 48 43 41 43
Wind_Direction_500mb
213 209 209 213 219 220 219 222 223 224 226 226 226 227 227 230 233 235 236 231 229 222 224 227 230 235 239 240 233 234 226 224 231
210 208 207 213 219 221 221 222 224 225 226 227 228 228 228 229 232 234 234 230 229 224 225 230 235 240 239 242 233 236 231 228 232
214 212 209 215 217 221 222 225 228 228 229 228 229 229 230 230 232 234 235 231 227 226 227 230 233 234 238 238 232 232 235 234 233
213 210 211 215 221 219 226 227 227 229 229 230 229 230 230 230 232 234 234 232 228 226 224 225 229 230 234 233 228 228 231 235 236
226 221 219 212 218 221 220 219 223 230 230 231 232 231 229 231 232 234 235 232 231 226 225 226 230 232 234 237 236 235 237 238 240
240 234 224 217 219 216 220 219 222 228 231 232 233 232 229 229 230 231 234 231 232 229 227 230 232 234 236 238 240 240 242 245 245
240 221 220 216 215 216 221 223 226 228 231 233 231 232 231 228 227 230 232 230 231 233 229 230 231 234 237 239 242 245 246 248 250
238 213 209 213 215 216 218 222 229 230 233 232 230 229 232 232 228 228 232 232 231 231 233 233 234 236 238 241 243 244 246 248 251
234 229 211 211 211 209 216 230 231 233 234 235 232 230 233 234 230 227 229 233 233 233 234 233 236 237 238 240 242 245 248 252 254
238 244 234 220 212 213 219 224 225 228 235 235 233 234 236 235 235 231 229 232 235 235 236 237 237 238 239 240 242 246 248 252 254
228 241 242 227 218 215 225 229 229 237 232 229 233 235 235 235 233 235 232 232 234 237 237 237 236 240 240 241 244 247 249 250 253
243 247 248 228 221 228 235 234 239 234 226 228 231 233 234 236 237 236 235 234 235 237 239 240 238 240 242 242 243 243 245 245 245
218 219 220 222 224 224 220 229 228 226 227 227 232 235 239 241 240 239 238 239 237 237 239 241 242 241 240 238 238 238 238 233 239
204 221 218 198 203 212 225 225 228 226 233 235 242 241 245 241 241 241 241 240 240 239 238 238 237 240 239 232 228 222 223 226 237
162 169 176 177 210 222 219 230 230 228 231 226 233 239 242 239 240 243 241 240 240 239 238 235 232 230 228 222 212 206 212 223 219
152 161 169 179 199 199 205 225 238 235 236 237 239 235 239 242 244 243 241 238 236 237 235 232 224 215 218 214 195 191 186 209 216
132 138 144 173 228 257 271 261 239 238 245 250 248 244 244 243 241 240 237 238 237 233 221 216 214 216 219 214 198 189 194 216 216
120 122 122 139 307 330 328 324 310 294 265 249 253 261 255 246 240 235 226 223 223 223 218 213 210 214 214 199 167 179 226 219 206
97 94 94 104 106 69 15 354 348 344 329 303 263 247 242 236 234 221 209 207 197 199 200 183 188 203 173 143 146 234 216 211 201
79 80 79 70 70 73 50 337 333 333 330 332 288 246 226 231 217 206 181 128 107 81 70 112 133 131 145 149 154 188 203 199 203
Wind_Speed_850mb
93 91 96 104 116 115 115 118 119 118 115 110 105 97 90 82 77 68 60 58 57 64 58 52 46 45 41 33 30 30 30 31 29
74 87 96 105 119 117 117 120 123 125 124 118 112 104 96 89 81 74 68 58 59 67 61 54 50 45 41 36 35 34 32 31 30
69 85 90 105 107 119 116 116 121 122 122 123 115 107 101 93 84 79 73 59 66 69 72 64 55 51 45 40 39 40 37 33 33
75 84 97 107 113 102 115 119 116 121 120 120 120 112 104 97 90 86 82 68 71 73 68 64 61 56 51 42 43 42 42 36 35
75 91 92 88 106 101 102 107 114 119 117 118 119 115 107 98 91 90 89 77 75 79 76 73 66 60 58 52 51 51 49 45 41
63 74 79 80 96 87 94 98 109 118 116 115 115 115 115 107 98 95 94 85 79 81 83 81 77 73 68 63 58 56 55 53 49
51 65 84 88 95 90 101 101 106 112 117 116 112 112 114 115 105 93 95 89 84 83 85 88 84 83 80 75 67 64 63 60 56
41 51 76 89 101 105 99 94 94 102 107 111 112 110 112 115 111 94 95 95 93 88 88 89 90 89 85 83 81 77 70 65 62
41 58 80 94 95 90 86 84 93 97 104 110 110 109 108 112 109 104 100 102 100 96 95 90 92 93 97 94 89 85 80 74 68
59 59 72 92 96 87 96 97 93 94 98 108 109 106 107 107 108 104 106 107 105 103 101 96 95 95 96 97 92 88 82 76 69
57 50 62 75 95 86 81 78 86 91 100 108 111 106 107 109 109 104 105 110 110 109 107 104 99 98 94 89 84 80 76 70 65
44 41 42 65 70 73 78 87 91 90 96 104 106 107 107 108 110 109 109 109 110 114 113 109 104 101 91 78 77 71 64 59 61
42 30 26 59 58 48 49 67 66 76 85 94 101 106 108 110 108 113 113 111 110 111 113 112 103 98 84 74 70 57 51 46 56
36 37 35 42 43 38 37 55 61 62 73 86 85 93 101 110 111 113 113 113 114 111 109 102 96 88 72 70 61 46 45 46 48
32 30 24 18 22 33 37 45 64 75 76 78 84 71 98 111 111 113 110 110 110 110 103 95 88 81 75 63 52 46 42 44 33
30 26 22 18 15 16 22 35 47 66 78 77 83 101 101 101 103 109 110 108 103 110 110 104 91 81 75 67 63 54 47 31 31
28 21 14 8 8 10 14 16 30 52 62 72 84 89 96 99 103 108 106 106 100 97 84 79 79 83 77 67 65 57 52 56 48
29 21 14 5 1 9 17 24 28 30 39 54 62 72 84 93 95 87 82 81 81 86 87 83 80 72 56 43 58 36 37 42 52
33 29 21 14 10 6 12 20 29 30 26 23 28 35 48 53 60 64 69 56 39 51 70 65 67 54 58 47 28 29 47 42 40
37 31 26 21 16 11 6 13 22 26 28 22 13 20 25 35 42 64 66 66 67 57 47 36 44 45 35 52 59 48 43 41 43
Wind_Direction_850mb
213 209 209 213 219 220 219 222 223 224 226 226 226 227 227 230 233 235 236 231 229 222 224 227 230 235 239 240 233 234 226 224 231
210 208 207 213 219 221 221 222 224 225 226 227 228 228 228 229 232 234 234 230 229 224 225 230 235 240 239 242 233 236 231 228 232
214 212 209 215 217 221 222 225 228 228 229 228 229 229 230 230 232 234 235 231 227 226 227 230 233 234 238 238 232 232 235 234 233
213 210 211 215 221 219 226 227 227 229 229 230 229 230 230 230 232 234 234 232 228 226 224 225 229 230 234 233 228 228 231 235 236
226 221 219 212 218 221 220 219 223 230 230 231 232 231 229 231 232 234 235 232 231 226 225 226 230 232 234 237 236 235 237 238 240
240 234 224 217 219 216 220 219 222 228 231 232 233 232 229 229 230 231 234 231 232 229 227 230 232 234 236 238 240 240 242 245 245
240 221 220 216 215 216 221 223 226 228 231 233 231 232 231 228 227 230 232 230 231 233 229 230 231 234 237 239 242 245 246 248 250
238 213 209 213 215 216 218 222 229 230 233 232 230 229 232 232 228 228 232 232 231 231 233 233 234 236 238 241 243 244 246 248 251
234 229 211 211 211 209 216 230 231 233 234 235 232 230 233 234 230 227 229 233 233 233 234 233 236 237 238 240 242 245 248 252 254
238 244 234 220 212 213 219 224 225 228 235 235 233 234 236 235 235 231 229 232 235 235 236 237 237 238 239 240 242 246 248 252 254
228 241 242 227 218 215 225 229 229 237 232 229 233 235 235 235 233 235 232 232 234 237 237 237 236 240 240 241 244 247 249 250 253
243 247 248 228 221 228 235 234 239 234 226 228 231 233 234 236 237 236 235 234 235 237 239 240 238 240 242 242 243 243 245 245 245
218 219 220 222 224 224 220 229 228 226 227 227 232 235 239 241 240 239 238 239 237 237 239 241 242 241 240 238 238 238 238 233 239
204 221 218 198 203 212 225 225 228 226 233 235 242 241 245 241 241 241 241 240 240 239 238 238 237 240 239 232 228 222 223 226 237
162 169 176 177 210 222 219 230 230 228 231 226 233 239 242 239 240 243 241 240 240 239 238 235 232 230 228 222 212 206 212 223 219
152 161 169 179 199 199 205 225 238 235 236 237 239 235 239 242 244 243 241 238 236 237 235 232 224 215 218 214 195 191 186 209 216
132 138 144 173 228 257 271 261 239 238 245 250 248 244 244 243 241 240 237 238 237 233 221 216 214 216 219 214 198 189 194 216 216
120 122 122 139 307 330 328 324 310 294 265 249 253 261 255 246 240 235 226 223 223 223 218 213 210 214 214 199 167 179 226 219 206
97 94 94 104 106 69 15 354 348 344 329 303 263 247 242 236 234 221 209 207 197 199 200 183 188 203 173 143 146 234 216 211 201
79 80 79 70 70 73 50 337 333 333 330 332 288 246 226 231 217 206 181 128 107 81 70 112 133 131 145 149 154 188 203 199 203